Date String (YYYY-MM-DD hh:mm:ss) UTC,Instrument flags,Ambient pressure (hPa),Sample flow (lpm),Bypass flow (lpm),Sample temperature (°C),Ambient temperature (°C),ASC tube jacket temperature (°C),LED temperature (°C),Box temperature (°C),Sample RH (%),Span deviation,Mass concentration (μg/m³),Mass concentration (μg/m³),Mass concentration (μg/m³)
DateTimeUTC,F1_M11,P_M11,Q1_M11,Q2_M11,T1_M11,T2_M11,T3_M11,T4_M11,T5_M11,U1_M11,ZSPAN_M11,X0_M11,X2_M11,X1_M11
2022-05-15 10:00:00,,0828.7,5.01,0.00,29.5,28.8,00.0,38.4,31.3,10.9,0000.0,0010.94,0003.66,0002.26
2022-05-15 10:01:00,,0828.9,5.00,0.00,29.5,28.8,00.0,38.4,31.3,10.8,0000.0,0010.65,0003.64,0002.24
2022-05-15 10:02:00,,0829.3,5.01,0.00,29.5,28.8,00.0,38.5,31.3,10.7,0000.0,0010.23,0003.58,0002.22
2022-05-15 10:03:00,,0828.8,5.00,0.00,29.5,28.8,00.0,38.5,31.3,10.7,0000.0,0010.07,0003.60,0002.23
2022-05-15 10:04:00,,0828.8,5.00,0.00,29.6,28.8,00.0,38.5,31.3,10.7,0000.0,0010.20,0003.63,0002.22
2022-05-15 10:05:00,,0828.8,5.01,0.00,29.6,28.8,00.0,38.5,31.3,10.7,0000.0,0010.17,0003.58,0002.20
2022-05-15 10:06:00,,0828.9,4.99,0.00,29.6,28.8,00.0,38.5,31.3,10.7,0000.0,0010.08,0003.55,0002.19
2022-05-15 10:07:00,,0829.2,5.01,0.00,29.6,28.8,00.0,38.5,31.3,10.7,0000.0,0010.32,0003.55,0002.17
2022-05-15 10:08:00,,0829.1,5.01,0.00,29.6,28.8,00.0,38.5,31.4,10.7,0000.0,0010.26,0003.55,0002.17
2022-05-15 10:09:00,,0828.7,5.00,0.00,29.6,28.8,00.0,38.5,31.4,10.7,0000.0,0010.73,0003.58,0002.16
2022-05-15 10:10:00,,0828.9,5.00,0.00,29.6,28.8,00.0,38.5,31.4,10.7,0000.0,0011.09,0003.57,0002.17
2022-05-15 10:11:00,,0829.3,5.00,0.00,29.6,28.8,00.0,38.5,31.4,10.7,0000.0,0010.88,0003.56,0002.19
2022-05-15 10:12:00,,0829.0,5.00,0.00,29.6,28.8,00.0,38.5,31.4,10.7,0000.0,0010.38,0003.54,0002.19
2022-05-15 10:13:00,,0828.8,5.01,0.00,29.6,28.8,00.0,38.5,31.4,10.7,0000.0,0009.79,0003.56,0002.20
2022-05-15 10:14:00,,0829.0,4.99,0.00,29.6,28.8,00.0,38.5,31.4,10.7,0000.0,0010.23,0003.55,0002.18
2022-05-15 10:15:00,,0829.3,5.00,0.00,29.7,28.8,00.0,38.6,31.4,10.7,0000.0,0010.03,0003.55,0002.17
2022-05-15 10:16:00,,0829.0,5.01,0.00,29.7,28.8,00.0,38.6,31.4,10.8,0000.0,0010.11,0003.55,0002.14
2022-05-15 10:17:00,,0828.8,5.01,0.00,29.7,28.8,00.0,38.6,31.4,11.0,0000.0,0010.04,0003.52,0002.12
2022-05-15 10:18:00,,0828.9,5.00,0.00,29.7,28.8,00.0,38.6,31.4,10.9,0000.0,0009.54,0003.50,0002.12
2022-05-15 10:19:00,,0828.9,4.99,0.00,29.6,28.8,00.0,38.6,31.4,10.8,0000.0,0009.57,0003.46,0002.10
2022-05-15 10:20:00,,0828.9,5.00,0.00,29.7,28.8,00.0,38.6,31.4,10.7,0000.0,0009.10,0003.45,0002.10
2022-05-15 10:21:00,,0829.1,5.00,0.00,29.7,28.8,00.0,38.6,31.4,10.7,0000.0,0008.79,0003.46,0002.09
2022-05-15 10:22:00,,0828.7,5.00,0.00,29.7,28.8,00.0,38.6,31.4,10.6,0000.0,0008.85,0003.43,0002.06
2022-05-15 10:23:00,,0828.7,5.00,0.00,29.7,28.8,00.0,38.6,31.4,10.6,0000.0,0009.12,0003.47,0002.06
2022-05-15 10:24:00,,0829.2,5.01,0.00,29.7,28.8,00.0,38.6,31.4,10.7,0000.0,0009.03,0003.51,0002.07
2022-05-15 10:25:00,,0828.9,4.99,0.00,29.7,28.8,00.0,38.6,31.4,10.6,0000.0,0008.60,0003.52,0002.06
2022-05-15 10:26:00,,0828.9,5.00,0.00,29.7,28.7,00.0,38.6,31.4,10.7,0000.0,0008.52,0003.50,0002.08
2022-05-15 10:27:00,,0829.0,5.01,0.00,29.7,28.7,00.0,38.6,31.4,10.8,0000.0,0008.33,0003.51,0002.09
2022-05-15 10:28:00,,0828.8,5.00,0.00,29.7,28.7,00.0,38.6,31.3,10.9,0000.0,0009.00,0003.56,0002.11
2022-05-15 10:29:00,,0828.6,4.99,0.00,29.7,28.6,00.0,38.6,31.3,10.7,0000.0,0009.86,0003.57,0002.11
2022-05-15 10:30:00,,0828.7,5.00,0.00,29.7,28.7,00.0,38.6,31.4,10.7,0000.0,0010.05,0003.62,0002.11
2022-05-15 10:31:00,,0828.5,5.01,0.00,29.7,28.7,00.0,38.6,31.4,10.8,0000.0,0010.62,0003.65,0002.13
2022-05-15 10:32:00,,0828.5,4.99,0.00,29.7,28.7,00.0,38.6,31.4,10.7,0000.0,0010.90,0003.66,0002.15
2022-05-15 10:33:00,,0828.9,5.00,0.00,29.6,28.7,00.0,38.6,31.4,10.7,0000.0,0010.88,0003.69,0002.17
2022-05-15 10:34:00,,0828.6,5.00,0.00,29.6,28.7,00.0,38.6,31.4,10.7,0000.0,0010.89,0003.69,0002.16
2022-05-15 10:35:00,,0828.9,4.99,0.00,29.6,28.7,00.0,38.6,31.3,10.8,0000.0,0011.05,0003.64,0002.14
2022-05-15 10:36:00,,0829.0,5.01,0.00,29.6,28.7,00.0,38.6,31.4,10.9,0000.0,0011.44,0003.63,0002.14
2022-05-15 10:37:00,,0828.9,5.00,0.00,29.6,28.7,00.0,38.6,31.3,10.8,0000.0,0012.14,0003.61,0002.12
2022-05-15 10:38:00,,0828.9,5.00,0.00,29.6,28.7,00.0,38.6,31.3,10.8,0000.0,0012.73,0003.62,0002.12
2022-05-15 10:39:00,,0828.9,4.99,0.00,29.6,28.7,00.0,38.6,31.4,10.7,0000.0,0012.13,0003.58,0002.11
2022-05-15 10:40:00,,0828.8,5.00,0.00,29.6,28.7,00.0,38.6,31.4,11.3,0000.0,0011.40,0003.59,0002.11
2022-05-15 10:41:00,,0828.8,5.01,0.00,29.6,28.6,00.0,38.6,31.3,11.2,0000.0,0010.99,0003.53,0002.10
2022-05-15 10:42:00,,0828.8,5.00,0.00,29.6,28.6,00.0,38.6,31.3,11.0,0000.0,0010.33,0003.49,0002.08
2022-05-15 10:43:00,,0828.9,4.99,0.00,29.6,28.6,00.0,38.6,31.3,10.9,0000.0,0010.08,0003.47,0002.04
2022-05-15 10:44:00,,0829.0,5.01,0.00,29.6,28.6,00.0,38.6,31.3,10.9,0000.0,0010.80,0003.45,0002.01
2022-05-15 10:45:00,,0829.0,4.99,0.00,29.6,28.6,00.0,38.6,31.3,10.9,0000.0,0011.45,0003.46,0002.02
2022-05-15 10:46:00,,0829.0,5.00,0.00,29.6,28.6,00.0,38.6,31.3,10.9,0000.0,0012.00,0003.45,0002.02
2022-05-15 10:47:00,,0828.9,5.00,0.00,29.6,28.6,00.0,38.6,31.3,11.0,0000.0,0012.11,0003.43,0002.02
2022-05-15 10:48:00,,0828.9,5.00,0.00,29.6,28.7,00.0,38.6,31.3,10.8,0000.0,0011.79,0003.40,0002.01
2022-05-15 10:49:00,,0828.8,4.99,0.00,29.6,28.7,00.0,38.6,31.4,10.9,0000.0,0011.41,0003.42,0002.00
2022-05-15 10:50:00,,0828.7,5.00,0.00,29.6,28.7,00.0,38.6,31.3,10.9,0000.0,0011.33,0003.45,0001.98
2022-05-15 10:51:00,,0828.8,5.00,0.00,29.6,28.7,00.0,38.6,31.3,10.9,0000.0,0011.31,0003.46,0001.97
2022-05-15 10:52:00,,0828.7,5.00,0.00,29.6,28.7,00.0,38.6,31.3,10.9,0000.0,0011.42,0003.48,0001.97
2022-05-15 10:53:00,,0829.1,5.00,0.00,29.6,28.7,00.0,38.6,31.4,10.9,0000.0,0011.45,0003.50,0001.97
2022-05-15 10:54:00,,0828.9,5.00,0.00,29.6,28.7,00.0,38.6,31.3,10.9,0000.0,0011.38,0003.49,0001.98
2022-05-15 10:55:00,,0829.0,4.99,0.00,29.6,28.7,00.0,38.6,31.3,10.9,0000.0,0011.40,0003.49,0001.99
2022-05-15 10:56:00,,0829.0,5.01,0.00,29.6,28.7,00.0,38.6,31.3,10.9,0000.0,0010.56,0003.44,0001.97
2022-05-15 10:57:00,,0829.0,5.01,0.00,29.6,28.7,00.0,38.6,31.3,10.8,0000.0,0009.58,0003.45,0001.96
2022-05-15 10:58:00,,0829.0,5.00,0.00,29.6,28.7,00.0,38.6,31.3,10.9,0000.0,0009.18,0003.47,0001.96
2022-05-15 10:59:00,,0829.0,4.99,0.00,29.6,28.6,00.0,38.6,31.3,11.1,0000.0,0008.66,0003.44,0001.95
